Weather Roundup
Issued by NWS

Home | Current Version | Previous Version | Graphics & Text | Print | Product List | Glossary Off
Versions: 1 2 3 4 5 6 7 8 9 10 11 12 13 14 15 16 17 18 19 20 21 22 23 24 25 26 27 28 29 30 31 32 33 34 35 36 37 38 39 40 41 42 43 44 45 46 47 48 49 50

295
NZUS93 KARX 190310
HRRWXR

CURRENT HOURLY OBSERVATIONS ACROSS
MUCH OF THE UPPER MISSISSIPPI VALLEY
NATIONAL WEATHER SERVICE LA CROSSE WI
900 PM CST SAT FEB 18 2017


...SOUTHEAST MINNESOTA...


CITY           SKY/WX    TMP DP  RH WIND       PRES   REMARKS
ROCHESTER      CLOUDY    46  40  79 NW5       29.85R
ROCHESTER/MAYO FAIR      45  37  74 CALM      29.86R
WINONA         CLOUDY    34  32  93 NW3       29.85R
AUSTIN         CLOUDY    39  37  93 CALM      29.86R FOG
ALBERT LEA     CLEAR     39  37  93 CALM      29.86R
DODGE CENTER   CLOUDY    43  37  81 CALM      29.85R
PRESTON        PTCLDY    43  39  86 CALM      29.85R
OWATONNA       CLOUDY    37  34  87 CALM      29.87R
FARIBAULT      CLOUDY    36  32  87 CALM      29.86R
$$

...ELSEWHERE IN MINNESOTA...


CITY           SKY/WX    TMP DP  RH WIND       PRES   REMARKS
MINNEAPOLIS    CLOUDY    47  36  65 CALM      29.85R
INTNL FALLS    PTCLDY    36  29  75 W5        29.77R WCI  32
DULUTH         MOCLDY    43  30  60 NW9       29.78R
RED WING       PTCLDY    36  30  80 CALM      29.85R
REDWOOD FALLS  MOCLDY    43  38  82 E3        29.84R
MANKATO        NOT AVBL
WORTHINGTON    CLOUDY    40  38  93 SE3       29.84R
FAIRMONT       CLOUDY    37  35  92 CALM      29.86R
$$

...SOUTHWEST WISCONSIN...


CITY           SKY/WX    TMP DP  RH WIND       PRES   REMARKS
LA CROSSE      CLEAR     39  31  72 CALM      29.84R
PRAIRIE DU CHI CLEAR     36  31  85 CALM      29.84R
BOSCOBEL       CLEAR     37  33  85 CALM      29.84R
LONE ROCK      CLEAR     35  32  88 W5        29.84R WCI  31
PLATTEVILLE    CLEAR     42  39  88 N6        29.84R
FORT MC COY    PTCLDY    32  28  83 CALM      29.85R
CAMP DOUGLAS   MOCLDY    34  28  80 CALM      29.83R
MAUSTON-NEW LI PTCLDY    36  31  83 CALM      29.82R
VIROQUA        FAIR      45  31  57 CALM      29.83R
WIS DELLS      PTCLDY    40  28  64 CALM      29.82R
$$

...ELSEWHERE IN WISCONSIN...


CITY           SKY/WX    TMP DP  RH WIND       PRES   REMARKS
MILWAUKEE      CLEAR     44  35  70 CALM      29.80R
MADISON        PTCLDY    36  32  85 CALM      29.82R
GREEN BAY      CLOUDY    44  33  65 W9        29.78R
EAU CLAIRE     PTCLDY    40  34  79 SW3       29.83R
BLACK RVR FLS  FAIR      29  25  86 CALM      29.84R
MEDFORD        CLOUDY    41  31  69 W5        29.80R
WAUSAU         PTCLDY    42  31  64 CALM      29.79R
WIS RAPIDS     MOCLDY    42  29  59 W5        29.83R
MARSHFIELD     PTCLDY    43  31  62 W8        29.80R
RICE LAKE      CLOUDY    37  32  81 CALM      29.84R
$$

...NORTHEAST IOWA...


CITY           SKY/WX    TMP DP  RH WIND       PRES   REMARKS
WATERLOO       CLEAR     33  32  96 CALM      29.84R
DUBUQUE        CLEAR     37  33  85 CALM      29.84R
DECORAH        CLEAR     41  37  87 CALM      29.84R
MASON CITY     FOG       35  34  96 CALM      29.86R VSB 1/4
CHARLES CITY   FOG       39  39 100 CALM      29.85R VSB 1/2
OELWEIN        CLEAR     37  37 100 CALM      29.85R
$$

...ELSEWHERE IN IOWA...


CITY           SKY/WX    TMP DP  RH WIND       PRES   REMARKS
DES MOINES     PTCLDY    51  35  54 E5        29.85R
IOWA CITY      CLEAR     44  35  70 CALM      29.86R
FORT DODGE     CLEAR     34  30  86 CALM      29.85R
MARSHALLTOWN   CLEAR     38  37  97 CALM      29.84R
CEDAR RAPIDS   CLEAR     40  35  83 CALM      29.84R
$$

...NORTHERN ILLINOIS...


CITY           SKY/WX    TMP DP  RH WIND       PRES   REMARKS
CHICAGO-OHARE  CLEAR     47  35  63 CALM      29.80R
CHICAGO-MIDWAY CLEAR     50  33  52 CALM      29.80R
MOLINE         CLEAR     40  31  70 CALM      29.83R
ROCKFORD       CLEAR     43  35  73 CALM      29.84R
PEORIA         CLEAR     47  38  71 NW3       29.84R
$$

NOTE: "FAIR" INDICATES FEW OR NO CLOUDS BELOW 12,000 FEET WITH NO
SIGNIFICANT WEATHER AND/OR OBSTRUCTIONS TO VISIBILITY. WIND
SPEEDS ARE IN MILES-PER-HOUR.




USA.gov is the U.S. government's official web portal to all federal, state and local government web resources and services.